Location: Bednik
(45.3500°N, 16.3833°E)
Time: 07:17:42
(UTC+00:00)

Cosmos 1515 - Pass Details

Date: 08 August 2020
Orbit: 505 x 517 km, 82.5° (Epoch: 26 September)

Event Time Altitude Azimuth Distance (km) Brightness Sun altitude
Rises 21:12:25 0° 347° (NNW) 2,648 8.6 -24.2°
Reaches altitude 10° 21:14:35 10° 342° (NNW) 1,755 7.4 -24.3°
Enters shadow 21:17:57 51° 291° (WNW) 655 4.4 -24.6°
